Location: Boiro
(42.6475°N, 8.8834°W)
Time: 18:01:35
(UTC+01:00)

Transit 2A - Pass Details

Date: 06 December 2021
Orbit: 591 x 967 km, 66.7° (Epoch: 20 January)

Event Time Altitude Azimuth Distance (km) Brightness Sun altitude
Rises 08:54:00 0° 333° (NNW) 3,659 9.0 -0.4°
Reaches altitude 10° 08:56:49 10° 342° (NNW) 2,714 8.4 0.1°
Maximum altitude 09:02:42 37° 48° (NE) 1,445 7.7 1.0°
Drops below altitude 10° 09:08:22 10° 115° (ESE) 2,613 11.0 1.8°
Sets 09:11:01 0° 123° (ESE) 3,508 13.4 2.3°
